{"data":{"norad_id":55309,"intl_designator":"2023-010AS","name":"STARLINK-5315","alt_names":[],"object_type":"PAYLOAD","status":"ACTIVE","operator":null,"country":"US","launch_date":"2023-01-19","launch_site_code":"AFWTR","launch_vehicle":null,"mission":null,"orbit_class":"UNKNOWN","rcs_meters":null,"size_class":null,"mass_kg":null,"dimensions":null,"purposes":["comms"],"wikipedia_slug":null,"has_3d_model":false,"image_url":null,"decayed_at":null,"tle_current":{"epoch":"2026-05-25T02:46:00.706080Z","epoch_age_seconds":62180,"freshness":"FRESH","line1":"1 55309U 23010AS  26145.11528595 -.00000213  00000+0 -10015-4 0  9990","line2":"2 55309  69.9986 171.6181 0003577 267.6299  92.4451 14.98330903185222","mean_motion":14.98330903,"eccentricity":0.0003577,"inclination_deg":69.9986,"raan_deg":171.6181,"arg_perigee_deg":267.6299,"mean_anomaly_deg":92.4451,"bstar":-1.0015e-5,"rev_number":18522,"period_min":96.106941204829,"perigee_km":569.56701549458,"apogee_km":574.53918149104,"semimajor_km":6950.1900984928,"source":"CELESTRAK","updated_at":"2026-05-25T13:38:17.756851Z"}}}